Regional Weather Roundup
Issued by NWS Charleston, SC

Current Version | Previous Version | Graphics & Text | Print | Product List | Glossary On
Versions: 1 2 3 4 5 6 7 8 9 10 11 12 13 14 15 16 17 18 19 20 21 22 23 24 25 26 27 28 29 30 31 32 33 34 35 36 37 38 39 40 41 42 43 44 45 46 47 48 49 50
000
ASUS42 KCHS 160225
RWRCHS

REGIONAL WEATHER ROUNDUP
NATIONAL WEATHER SERVICE CHARLESTON SC
1000 PM EDT MON SEP 15 2014

NOTE: "FAIR" INDICATES FEW OR NO CLOUDS BELOW 12,000 FEET WITH NO
SIGNIFICANT WEATHER AND/OR OBSTRUCTIONS TO VISIBILITY.

NOT ALL STATIONS ARE QUALITY CONTROLLED BY THE NATIONAL
WEATHER SERVICE. USE DATA WITH CAUTION...ESPECIALLY
DEWPOINT OBSERVATIONS.

SCZ027-030-031-034>040-042>050-160300-
...SOUTH CAROLINA...

CITY           SKY/WX    TMP DP  RH WIND       PRES   REMARKS
N CHARLESTON   LGT RAIN  78  74  87 CALM      30.14R
WATERFRONT PRK   N/A     81 N/A N/A N3          N/A
FORT JOHNSON   NOT AVBL
MOUNT PLEASANT FAIR      75  75 100 CALM      30.14R FOG
JOHNS ISLAND   MOCLDY    75  75 100 CALM      30.15R
PINOPOLIS        N/A     75  73  94 CALM      30.07R
MONCKS CORNER  NOT AVBL
SUMMERVILLE    RAIN      73  73 100 CALM      30.15S
BEAUFORT MCAS  MOCLDY    77  73  87 W3        30.13F
BEAUFORT ARPT  FAIR      77  73  88 CALM      30.14S
HILTON HEAD IS MOCLDY    77  77 100 CALM      30.14S FOG
GEORGETOWN     NOT AVBL
WALTERBORO     CLOUDY    73 N/A N/A SE3       30.15S
ORANGEBURG     CLOUDY    75  71  87 CALM      30.14S
BARNWELL       CLOUDY    75  73  94 CALM      30.15S
AIKEN          CLOUDY    73  73 100 CALM      30.19R
MANNING        MOCLDY    73 N/A N/A CALM      30.14S
KINGSTREE      NOT AVBL
COLUMBIA       CLOUDY    75  70  84 CALM      30.13F
SUMTER         CLOUDY    73  70  88 NE2       30.13S
FLORENCE       CLOUDY    74  70  87 CALM      30.14S
MYRTLE BEACH   MOCLDY   N/A N/A N/A N7        30.14R
N MYRTLE BEACH MOCLDY    72  69  90 N3        30.13S

$$

GAZ063-065-086>088-099>101-113>116-118-119-134-136>141-150-160300-
...GEORGIA...

CITY           SKY/WX    TMP DP  RH WIND       PRES   REMARKS
SAVANNAH ARPT  CLOUDY    76  73  91 CALM      30.14S
HUNTER AAF     MOCLDY    77  77 100 N2        30.12S
FORT STEWART   CLOUDY    75  74  96 CALM      30.13R
STATESBORO     NOT AVBL
SYLVANIA       PTCLDY    75  74  98 CALM      30.16R
CLAXTON        NOT AVBL
THOMSON        CLOUDY    74  74 100 CALM      30.20S
AUGUSTA-BUSH   CLOUDY    73  72  96 CALM      30.14R
AUGUSTA-DANIEL CLOUDY    75  72  90 CALM      30.16R
SWAINSBORO     CLOUDY    79  79 100 S5        30.16R
VIDALIA        CLOUDY    75  73  94 SW9       30.17R
ALMA           CLOUDY    74  71  91 VRB3      30.14R
WAYCROSS       CLOUDY    77  76  98 CALM      30.13S
JESUP            N/A     77  75  94 CALM      30.14S
BRUNSWICK      CLOUDY    77  72  83 N5        30.15R THUNDER
SAINT SIMONS   LGT RAIN  76  74  93 N3        30.12F

$$

SCZ027-028-034-036>038-045-046-048>050-GAZ119-141-160300-
...LAKE AND SUPPLEMENTAL COASTAL OBSERVATIONS...

STATION/POSITION TIME  TEMP    WIND        PRES    WAVE   SWELL
                       AIR SEA DIR/SP/G            HT/PER HT/PER/DIR
                 (UTC) (F)     (DEG/KT/KT) (MB)    (FT/S) (FT/S/D)
UPR LAKE MARION  NOT AVBL
WINYAH BAY       0200   76     290/  3     1020.0S
LAKE MURRAY      0100   74     130/  5/  7 1020.0S
ACE BASIN NERRS  0200   74        CALM     1020.0F
FORT PULASKI     0200   78     310/  4/  5 1020.7S
SAPELO ISLAND    0200   77      10/  4     1021.0S

$$

ANZ835-935-AMZ111-154-330-350-352-354-374-450-454-472-160300-
...C-MAN AND BUOY OBSERVATIONS...

STATION/POSITION TIME  TEMP    WIND        PRES    WAVE   SWELL
                       AIR SEA DIR/SP/G            HT/PER HT/PER/DIR
                 (UTC) (F)     (DEG/KT/KT) (MB)    (FT/S) (FT/S/D)
FOLLY BEACH CMAN 0200   79     220/  8/  9 1020.9R
BUOY 41004       0200   80 83  180/  2/  2 1019.8R   2/ 5   2/ 5
BUOY 41008       0200   83 85  130/  6/  8 1020.2R   2/ 6   2/ 60/ 6
5E ST. MARYS GA  0200      84                N/A     2/ 3
FRYING PAN BUOY  NOT AVBL
BUOY 41025       0200   73     350/ 10/ 12 1020.1R   3/ 8   3/ 30/ 8
CAPE LOOKOUT NC  0200   74      10/  5/  5 1020.4R
BUOY 41002       0104   80 83  300/  6/  8 1020.1    3/ 6   3/310/ 6
BUOY 41010       0200   83 85  190/  4/  6 1020.5S   2/ 8   2/120/ 8
BUOY 41012       NOT AVBL
ST AUGUSTINE FL  0200   79     230/  1/  2 1020.9R
CAPERS NEARSHORE NOT AVBL
FRIPP NEARSHORE  NOT AVBL


$$



USA.gov is the U.S. government's official web portal to all federal, state and local government web resources and services.